RYR553 EIDW-EGCC

Flight info

Callsign RYR553
Flight time 0h 32m
Altitude 15000
Route BOFUM Q37 MALUD
Aircraft B38M/M-SDE1FGHILORVWXY/HB1

Departure

Time 2026-05-04 13:32
Airport Dublin Airport (EIDW)

Arrival

Time 2026-05-04 14:04
Airport Manchester Airport (EGCC)
Time Latitude Longitude Altitude Speed Heading
2026-05-04 13:00 53.43014 -6.25074 213 ft 0 kts
2026-05-04 13:18 53.42993 -6.25077 213 ft 4 kts
2026-05-04 13:18 53.42971 -6.25081 216 ft 4 kts 357°
2026-05-04 13:18 53.42957 -6.25065 213 ft 4 kts 281°
2026-05-04 13:18 53.42954 -6.25024 213 ft 4 kts 275°
2026-05-04 13:19 53.42951 -6.24979 213 ft 4 kts 275°
2026-05-04 13:19 53.42949 -6.24934 213 ft 4 kts 275°
2026-05-04 13:19 53.42946 -6.24889 213 ft 4 kts 275°
2026-05-04 13:19 53.42944 -6.24844 213 ft 4 kts 275°
2026-05-04 13:20 53.42941 -6.24799 213 ft 4 kts 275°
2026-05-04 13:20 53.42939 -6.24754 213 ft 4 kts 275°
2026-05-04 13:20 53.42938 -6.24743 213 ft 0 kts 275°
2026-05-04 13:23 53.42939 -6.24755 213 ft 2 kts 275°
2026-05-04 13:23 53.42941 -6.24799 217 ft 5 kts 275°
2026-05-04 13:23 53.42945 -6.24871 213 ft 8 kts 275°
2026-05-04 13:23 53.42951 -6.24974 216 ft 11 kts 274°
2026-05-04 13:24 53.42958 -6.25124 215 ft 14 kts 274°
2026-05-04 13:24 53.42963 -6.25215 213 ft 8 kts 270°
2026-05-04 13:24 53.42938 -6.25304 217 ft 10 kts 233°
2026-05-04 13:25 53.42835 -6.25507 215 ft 12 kts 224°
2026-05-04 13:25 53.42768 -6.25616 218 ft 15 kts 224°
2026-05-04 13:25 53.42701 -6.25725 213 ft 5 kts 219°
2026-05-04 13:25 53.42659 -6.25742 216 ft 7 kts 173°
2026-05-04 13:26 53.42608 -6.25697 213 ft 9 kts 155°
2026-05-04 13:26 53.42543 -6.25656 216 ft 11 kts 176°
2026-05-04 13:26 53.42498 -6.25713 220 ft 7 kts 243°
2026-05-04 13:26 53.42479 -6.25775 221 ft 7 kts 243°
2026-05-04 13:27 53.42450 -6.25852 213 ft 9 kts 229°
2026-05-04 13:27 53.42399 -6.25928 215 ft 11 kts 220°
2026-05-04 13:27 53.42335 -6.26020 221 ft 13 kts 224°
2026-05-04 13:27 53.42283 -6.26160 215 ft 15 kts 246°
2026-05-04 13:28 53.42270 -6.26323 213 ft 17 kts 275°
2026-05-04 13:28 53.42280 -6.26531 221 ft 19 kts 275°
2026-05-04 13:28 53.42293 -6.26764 213 ft 21 kts 275°
2026-05-04 13:28 53.42307 -6.27022 217 ft 23 kts 275°
2026-05-04 13:29 53.42323 -6.27302 218 ft 25 kts 276°
2026-05-04 13:29 53.42338 -6.27569 218 ft 20 kts 275°
2026-05-04 13:29 53.42352 -6.27817 221 ft 22 kts 275°
2026-05-04 13:29 53.42365 -6.28089 217 ft 24 kts 276°
2026-05-04 13:30 53.42381 -6.28381 217 ft 26 kts 275°
2026-05-04 13:30 53.42397 -6.28690 213 ft 28 kts 275°
2026-05-04 13:30 53.42414 -6.28992 213 ft 13 kts 265°
2026-05-04 13:30 53.42356 -6.29076 216 ft 13 kts 194°
2026-05-04 13:31 53.42259 -6.29067 212 ft 15 kts 165°
2026-05-04 13:31 53.42238 -6.29022 219 ft 5 kts 96°
2026-05-04 13:31 53.42227 -6.28836 213 ft 41 kts 95°
2026-05-04 13:31 53.42182 -6.27933 214 ft 113 kts 95°
2026-05-04 13:32 53.42101 -6.26298 324 ft 159 kts 92°
2026-05-04 13:32 53.42001 -6.24408 988 ft 169 kts 92°
2026-05-04 13:32 53.41898 -6.22423 1838 ft 174 kts 93°
2026-05-04 13:32 53.41779 -6.20278 2380 ft 195 kts 92°
2026-05-04 13:33 53.41640 -6.17920 2972 ft 211 kts 92°
2026-05-04 13:33 53.41488 -6.15381 3605 ft 225 kts 94°
2026-05-04 13:33 53.41326 -6.12715 4350 ft 234 kts 93°
2026-05-04 13:33 53.41176 -6.09983 5185 ft 239 kts 94°
2026-05-04 13:34 53.41018 -6.07137 5880 ft 250 kts 93°
2026-05-04 13:34 53.40882 -6.04186 6645 ft 257 kts 96°
2026-05-04 13:34 53.40818 -6.01598 7277 ft 263 kts 81°
2026-05-04 13:34 53.41459 -5.98697 7943 ft 269 kts 59°
2026-05-04 13:35 53.42408 -5.96017 8948 ft 263 kts 58°
2026-05-04 13:35 53.44023 -5.90267 9087 ft 282 kts 67°
2026-05-04 13:35 53.44759 -5.87219 9085 ft 284 kts 67°
2026-05-04 13:36 53.45513 -5.84134 9113 ft 286 kts 67°
2026-05-04 13:36 53.46261 -5.81051 9505 ft 288 kts 67°
2026-05-04 13:36 53.47007 -5.77951 10391 ft 289 kts 67°
2026-05-04 13:36 53.47782 -5.74738 10796 ft 307 kts 67°
2026-05-04 13:37 53.48603 -5.71338 11309 ft 319 kts 68°
2026-05-04 13:37 53.49433 -5.67891 12014 ft 324 kts 67°
2026-05-04 13:37 53.50279 -5.64374 12825 ft 328 kts 67°
2026-05-04 13:37 53.50859 -5.61961 13379 ft 330 kts 67°
2026-05-04 13:38 53.51995 -5.57222 14585 ft 330 kts 67°
2026-05-04 13:38 53.52857 -5.53626 14975 ft 331 kts 67°
2026-05-04 13:38 53.53574 -5.49986 15048 ft 328 kts 81°
2026-05-04 13:38 53.53588 -5.46168 15095 ft 328 kts 91°
2026-05-04 13:39 53.53514 -5.42356 15080 ft 328 kts 90°
2026-05-04 13:39 53.53437 -5.38579 15088 ft 328 kts 91°
2026-05-04 13:39 53.53350 -5.34743 15088 ft 328 kts 92°
2026-05-04 13:39 53.53258 -5.30918 15087 ft 328 kts 91°
2026-05-04 13:40 53.53161 -5.27079 15088 ft 328 kts 91°
2026-05-04 13:40 53.53063 -5.23257 15088 ft 328 kts 91°
2026-05-04 13:40 53.52964 -5.19422 15088 ft 328 kts 91°
2026-05-04 13:40 53.52860 -5.15595 15088 ft 328 kts 92°
2026-05-04 13:41 53.52741 -5.11759 15087 ft 329 kts 92°
2026-05-04 13:41 53.52623 -5.07971 15085 ft 329 kts 92°
2026-05-04 13:41 53.52504 -5.04138 15088 ft 329 kts 92°
2026-05-04 13:42 53.52262 -4.96495 15079 ft 329 kts 92°
2026-05-04 13:42 53.52139 -4.92654 15084 ft 329 kts 92°
2026-05-04 13:42 53.52015 -4.88820 15081 ft 329 kts 92°
2026-05-04 13:42 53.51890 -4.84995 15081 ft 329 kts 92°
2026-05-04 13:43 53.51764 -4.81157 15079 ft 328 kts 92°
2026-05-04 13:43 53.51638 -4.77379 15085 ft 328 kts 92°
2026-05-04 13:43 53.51509 -4.73545 15070 ft 329 kts 92°
2026-05-04 13:43 53.51380 -4.69717 15071 ft 328 kts 92°
2026-05-04 13:44 53.51249 -4.65887 15068 ft 328 kts 93°
2026-05-04 13:44 53.51116 -4.62045 15069 ft 329 kts 93°
2026-05-04 13:44 53.50983 -4.58226 15069 ft 329 kts 93°
2026-05-04 13:44 53.50848 -4.54383 15073 ft 330 kts 93°
2026-05-04 13:45 53.50712 -4.50543 15074 ft 329 kts 93°
2026-05-04 13:45 53.50577 -4.46760 15073 ft 329 kts 93°
2026-05-04 13:45 53.50438 -4.42920 15077 ft 329 kts 93°
2026-05-04 13:45 53.50299 -4.39089 15078 ft 329 kts 93°
2026-05-04 13:46 53.50157 -4.35250 15074 ft 329 kts 93°
2026-05-04 13:46 53.50015 -4.31413 15075 ft 329 kts 93°
2026-05-04 13:46 53.49871 -4.27579 15073 ft 329 kts 93°
2026-05-04 13:46 53.49729 -4.23788 15073 ft 329 kts 93°
2026-05-04 13:47 53.49581 -4.19907 15072 ft 329 kts 93°
2026-05-04 13:47 53.49437 -4.16137 15075 ft 329 kts 93°
2026-05-04 13:47 53.49289 -4.12308 15074 ft 329 kts 94°
2026-05-04 13:47 53.49139 -4.08471 15069 ft 329 kts 94°
2026-05-04 13:48 53.48988 -4.04630 15073 ft 330 kts 94°
2026-05-04 13:48 53.48836 -4.00786 15071 ft 330 kts 94°
2026-05-04 13:48 53.48671 -3.96954 15071 ft 330 kts 97°
2026-05-04 13:48 53.48065 -3.93260 15086 ft 329 kts 110°
2026-05-04 13:49 53.47311 -3.89634 15068 ft 330 kts 109°
2026-05-04 13:49 53.46574 -3.86047 15065 ft 329 kts 109°
2026-05-04 13:49 53.45825 -3.82421 15065 ft 329 kts 109°
2026-05-04 13:49 53.45072 -3.78783 15064 ft 329 kts 109°
2026-05-04 13:50 53.44324 -3.75176 15068 ft 329 kts 109°
2026-05-04 13:50 53.43571 -3.71550 15069 ft 329 kts 109°
2026-05-04 13:50 53.42816 -3.67925 15070 ft 329 kts 109°
2026-05-04 13:50 53.42061 -3.64303 15072 ft 329 kts 109°
2026-05-04 13:51 53.41332 -3.60711 15062 ft 329 kts 106°
2026-05-04 13:51 53.40694 -3.57011 14523 ft 336 kts 106°
2026-05-04 13:51 53.40032 -3.53215 13855 ft 344 kts 107°
2026-05-04 13:51 53.39347 -3.49326 13117 ft 351 kts 107°
2026-05-04 13:52 53.37928 -3.41358 11667 ft 363 kts 107°
2026-05-04 13:52 53.37204 -3.37301 10943 ft 361 kts 107°
2026-05-04 13:52 53.36492 -3.33331 10362 ft 354 kts 107°
2026-05-04 13:53 53.35796 -3.29453 10021 ft 341 kts 107°
2026-05-04 13:53 53.35134 -3.25775 9746 ft 327 kts 106°
2026-05-04 13:53 53.34480 -3.22151 9369 ft 317 kts 107°
2026-05-04 13:54 53.33261 -3.15408 8692 ft 292 kts 107°
2026-05-04 13:54 53.32684 -3.12225 8385 ft 280 kts 106°
2026-05-04 13:54 53.31593 -3.06224 7806 ft 260 kts 106°
2026-05-04 13:55 53.31067 -3.03335 7551 ft 261 kts 107°
2026-05-04 13:55 53.29987 -2.97425 6976 ft 268 kts 107°
2026-05-04 13:55 53.29444 -2.94460 6689 ft 268 kts 107°
2026-05-04 13:56 53.28909 -2.91537 6395 ft 267 kts 107°
2026-05-04 13:56 53.28367 -2.88585 6086 ft 265 kts 107°
2026-05-04 13:56 53.27289 -2.82733 5503 ft 262 kts 107°
2026-05-04 13:57 53.26754 -2.79835 5185 ft 260 kts 107°
2026-05-04 13:57 53.26224 -2.76961 4916 ft 259 kts 107°
2026-05-04 13:58 53.24700 -2.68748 4430 ft 230 kts 107°
2026-05-04 13:58 53.23812 -2.63971 4178 ft 206 kts 107°
2026-05-04 13:58 53.23376 -2.61628 4093 ft 215 kts 107°
2026-05-04 13:59 53.22927 -2.59216 3993 ft 219 kts 107°
2026-05-04 13:59 53.22476 -2.56789 3742 ft 218 kts 105°
2026-05-04 13:59 53.23007 -2.52074 3378 ft 211 kts 56°
2026-05-04 14:00 53.23867 -2.50142 3121 ft 210 kts 51°
2026-05-04 14:00 53.25712 -2.46365 2573 ft 210 kts 50°
2026-05-04 14:00 53.26633 -2.44483 2294 ft 202 kts 50°
2026-05-04 14:01 53.27479 -2.42754 2044 ft 183 kts 51°
2026-05-04 14:01 53.28230 -2.41217 1847 ft 159 kts 51°
2026-05-04 14:01 53.29553 -2.38525 1392 ft 145 kts 50°
2026-05-04 14:02 53.30196 -2.37232 1208 ft 145 kts 48°
2026-05-04 14:02 53.30815 -2.35933 1014 ft 145 kts 51°
2026-05-04 14:02 53.31457 -2.34628 802 ft 145 kts 51°
2026-05-04 14:02 53.32103 -2.33322 640 ft 146 kts 51°
2026-05-04 14:03 53.32741 -2.32001 428 ft 146 kts 50°
2026-05-04 14:03 53.33380 -2.30686 239 ft 142 kts 51°
2026-05-04 14:03 53.33916 -2.29572 229 ft 92 kts 53°
2026-05-04 14:03 53.34249 -2.28887 229 ft 72 kts 50°
2026-05-04 14:04 53.34699 -2.27966 229 ft 39 kts 51°
2026-05-04 14:04 53.34874 -2.27603 224 ft 40 kts 51°
2026-05-04 14:04 53.35039 -2.27289 228 ft 21 kts 17°
2026-05-04 14:05 53.35293 -2.27185 243 ft 15 kts 39°
2026-05-04 14:05 53.35356 -2.27066 248 ft 13 kts 50°
2026-05-04 14:05 53.35412 -2.26951 251 ft 13 kts 51°
2026-05-04 14:06 53.35462 -2.26848 257 ft 10 kts 51°
2026-05-04 14:06 53.35503 -2.26763 260 ft 9 kts 51°
2026-05-04 14:06 53.35554 -2.26665 264 ft 14 kts 40°
2026-05-04 14:06 53.35657 -2.26636 271 ft 16 kts 353°
2026-05-04 14:07 53.35776 -2.26666 272 ft 18 kts 350°
2026-05-04 14:07 53.35866 -2.26692 266 ft 9 kts 350°
2026-05-04 14:07 53.35895 -2.26706 263 ft 0 kts 332°
2026-05-04 14:07 53.35915 -2.26719 260 ft 9 kts 343°
2026-05-04 14:08 53.35988 -2.26756 258 ft 11 kts 306°
2026-05-04 14:08 53.36021 -2.26858 258 ft 6 kts 315°
2026-05-04 14:08 53.36027 -2.26867 258 ft 0 kts 313°
2026-05-04 14:08 53.36027 -2.26868 258 ft 1 kts 313°
2026-05-04 14:09 53.36036 -2.26883 258 ft 0 kts 313°